Change the Weather History Date:

Friday, January 11, 2013

  Actual Average Record
Temperature  
Mean Temperature 40 °F -  
Max Temperature 48 °F 36 °F 53 °F (2008)
Min Temperature 32 °F 23 °F 6 °F (2004)
Degree Days  
Heating Degree Days 25    
Moisture  
Dew Point 39 °F    
Average Humidity 87    
Maximum Humidity 100    
Minimum Humidity 65    
Precipitation  
Precipitation 0.39 in - - ()
Sea Level Pressure  
Sea Level Pressure 30.28 in    
Wind  
Wind Speed 5 mph (ESE)    
Max Wind Speed 10 mph    
Max Gust Speed -    
Visibility 7 miles    
Events Rain    
Averages and records for this station are not official NWS values.
T = Trace of Precipitation, MM = Missing Value Source: NWS Daily Summary

Daily Weather History Graph

Daily Weather History Graph

Search for Another Location

Airport or City:

Trip Planner

Search our weather history database for the weather conditions in past years. The results will help you decide how hot, cold, wet, or windy it might be!

Date:

Astronomy

Jan. 11, 2013 Rise Set
Actual Time 7:16 AM EST 4:46 PM EST
Civil Twilight 6:46 AM EST 5:17 PM EST
Nautical Twilight 6:12 AM EST 5:51 PM EST
Astronomical Twilight 5:39 AM EST 6:24 PM EST
Moon 6:47 AM EST (1/11) 5:01 PM EST (1/11)
Length of Visible Light 10h 30m
Length of Day
9h 29m
Waning Crescent, 0% of the Moon is Illuminated
Jan 11
Waning Crescent
Jan 11
New
Jan 18
First Quarter
Jan 26
Full
Feb 3
Last Quarter

Hourly Weather History & Observations

Time (EST) Temp. Windchill Dew Point Humidity Pressure Visibility Wind Dir Wind Speed Gust Speed Precip Events Conditions
1:53 AM 35.1 °F 31.0 °F 25.0 °F 67% 30.53 in 10.0 mi NNE 4.6 mph - N/A   Clear
2:53 AM 35.1 °F 31.0 °F 25.0 °F 67% 30.51 in 10.0 mi NNE 4.6 mph - N/A   Clear
3:53 AM 32.0 °F 25.6 °F 25.0 °F 75% 30.49 in 10.0 mi NNE 6.9 mph - N/A   Clear
4:53 AM 34.0 °F - 25.0 °F 70% 30.46 in 10.0 mi Calm Calm - N/A   Clear
5:53 AM 34.0 °F 31.0 °F 26.1 °F 73% 30.46 in 10.0 mi NE 3.5 mph - N/A   Clear
6:53 AM 35.1 °F - 27.0 °F 72% 30.48 in 10.0 mi Calm Calm - N/A   Clear
7:53 AM 35.1 °F - 28.0 °F 76% 30.50 in 10.0 mi Calm Calm - N/A   Clear
8:53 AM 36.0 °F 31.1 °F 28.0 °F 73% 30.47 in 10.0 mi East 5.8 mph - N/A   Clear
9:53 AM 39.0 °F 36.8 °F 28.0 °F 65% 30.47 in 10.0 mi ENE 3.5 mph - N/A   Clear
10:53 AM 41.0 °F 38.0 °F 30.0 °F 65% 30.45 in 10.0 mi ESE 4.6 mph - N/A   Clear
11:53 AM 43.0 °F 41.3 °F 32.0 °F 65% 30.39 in 10.0 mi East 3.5 mph - N/A   Partly Cloudy
12:53 PM 44.1 °F 39.5 °F 35.1 °F 71% 30.35 in 10.0 mi ESE 8.1 mph - N/A   Overcast
1:53 PM 44.1 °F 40.8 °F 36.0 °F 73% 30.34 in 10.0 mi SE 5.8 mph - 0.00 in   Overcast
3:13 PM 44.6 °F 40.7 °F 37.4 °F 76% 30.31 in 10.0 mi ESE 6.9 mph - N/A   Overcast
3:51 PM 44.6 °F 40.7 °F 39.2 °F 81% 30.29 in 10.0 mi ESE 6.9 mph - 0.00 in Rain Light Rain
3:53 PM 44.1 °F 40.8 °F 39.0 °F 82% 30.29 in 10.0 mi ESE 5.8 mph - 0.00 in Rain Light Rain
4:53 PM 44.1 °F 41.5 °F 41.0 °F 89% 30.27 in 7.0 mi ESE 4.6 mph - 0.00 in Rain Light Rain
5:53 PM 44.1 °F 41.5 °F 42.1 °F 93% 30.25 in 6.0 mi SE 4.6 mph - 0.02 in Rain Light Rain
6:24 PM 44.6 °F 40.2 °F 42.8 °F 93% 30.22 in 5.0 mi SSE 8.1 mph - 0.03 in Rain Light Rain
6:53 PM 45.0 °F 41.8 °F 44.1 °F 97% 30.21 in 6.0 mi SE 5.8 mph - 0.07 in Rain Light Rain
7:09 PM 44.6 °F 39.7 °F 44.6 °F 100% 30.20 in 7.0 mi SSE 9.2 mph - 0.01 in Rain Light Rain
7:53 PM 46.0 °F 41.0 °F 45.0 °F 96% 30.17 in 6.0 mi SE 10.4 mph - 0.07 in Rain Light Rain
8:45 PM 46.4 °F - 44.6 °F 93% 30.20 in 2.5 mi Calm Calm - 0.12 in Rain Rain
8:48 PM 46.4 °F - 44.6 °F 93% 30.20 in 4.0 mi Calm Calm - 0.12 in Rain Light Rain
8:53 PM 46.0 °F 44.8 °F 45.0 °F 96% 30.20 in 5.0 mi SE 3.5 mph - 0.12 in Rain Light Rain
9:53 PM 45.0 °F 42.6 °F 44.1 °F 97% 30.17 in 4.0 mi ESE 4.6 mph - 0.03 in Rain Light Rain
10:09 PM 44.6 °F 42.2 °F 44.6 °F 100% 30.16 in 4.0 mi East 4.6 mph - 0.00 in Rain Light Rain
10:16 PM 44.6 °F 42.2 °F 44.6 °F 100% 30.15 in 4.0 mi ESE 4.6 mph - 0.01 in Rain Light Rain
10:27 PM 44.6 °F 42.2 °F 44.6 °F 100% 30.15 in 3.0 mi East 4.6 mph - 0.03 in Rain Rain
10:34 PM 44.6 °F 41.4 °F 44.6 °F 100% 30.14 in 4.0 mi ESE 5.8 mph - 0.05 in Rain Rain
10:37 PM 44.6 °F 41.4 °F 44.6 °F 100% 30.14 in 4.0 mi ESE 5.8 mph - 0.06 in Rain Rain
10:46 PM 44.6 °F 42.2 °F 44.6 °F 100% 30.13 in 3.0 mi ESE 4.6 mph - 0.07 in Rain Rain
10:53 PM 45.0 °F 42.6 °F 44.1 °F 97% 30.13 in 4.0 mi ESE 4.6 mph - 0.08 in Rain Light Rain
11:00 PM 44.6 °F 42.2 °F 44.6 °F 100% 30.13 in 4.0 mi East 4.6 mph - 0.00 in Rain Light Rain
11:08 PM 44.6 °F 41.4 °F 44.6 °F 100% 30.12 in 4.0 mi East 5.8 mph - 0.00 in Rain Light Rain
11:35 PM 46.4 °F 42.9 °F 46.4 °F 100% 30.11 in 3.0 mi East 6.9 mph - 0.00 in   Overcast
11:51 PM 48.2 °F - 46.4 °F 93% 30.10 in 2.5 mi ESE 6.9 mph - 0.00 in Rain Light Rain
11:53 PM 46.9 °F - 46.9 °F 100% 30.11 in 2.5 mi ESE 8.1 mph - 0.00 in Rain Light Rain